ICEYE-X15 (48917 NORAD) Tracking and Keplerian Element Data

This shows tracking and keplerian element data for the satellite.

Feedback or suggestion? Click here.




ElementValue
Catalog48917
NameICEYE-X15
Epoch Orbit20127
Epoch Day35.21763812
Epoch Year2025
RAAN205.4726
Inclination97.636
Eccentricity0.0004372
Argument of Perigee259.5609
Mean Anonmoly100.5155
Mean Motion15.61279326
Decay Rate0.000589
L11 48917U 21059AQ 25035.21763812 .00058900 00000+0 69170-3 0 9998
L22 48917 97.6360 205.4726 0004372 259.5609 100.5155 15.61279326201271



Live tracking and technical data element details for ICEYE-X15 (NORAD 48917). ICEYE-X15 can be tracked NOW for your location showing map with azimuth and elevation plus other details from your city location.







IsCatalogInMostPopularTable: catalog: 48917, numindb: 133
Update: records affected: 1



GetName: 48917 ICEYE-X15

Hit Count: updated at: Wed, 18 Jun 2025 06:26:48 GMT